This is the latest recevied weather packets stored in our database for station/object YB3RDW-13. If no packets are shown the sender has not sent any weather packets the latest 10 day(s).
| Time | Temp. | Humidity | Pressure | Rain* | Wind** | Luminosity | Snow |
|---|---|---|---|---|---|---|---|
| 1777614117 | 32.78° C | 69% | 1011 hPa | 0 mm | - | 669 W/m² | - |
| 1777613818 | 32.78° C | 67% | 1011 hPa | 0 mm | - | 665 W/m² | - |
| 1777613518 | 32.78° C | 67% | 1011 hPa | 0 mm | - | 398 W/m² | - |
| 1777613217 | 32.78° C | 69% | 1011 hPa | 0 mm | - | 685 W/m² | - |
| 1777612920 | 32.22° C | 69% | 1011 hPa | 0 mm | - | 680 W/m² | - |
| 1777612618 | 32.78° C | 69% | 1011 hPa | 0 mm | - | 659 W/m² | - |
| 1777612317 | 32.78° C | 70% | 1012 hPa | 0 mm | - | 689 W/m² | - |
| 1777612018 | 32.78° C | 68% | 1012 hPa | 0 mm | - | 689 W/m² | - |
| 1777611717 | 32.22° C | 70% | 1012 hPa | 0 mm | - | 699 W/m² | - |
| 1777611417 | 32.78° C | 69% | 1012 hPa | 0 mm | - | 249 W/m² | - |
| 1777610817 | 32.78° C | 69% | 1012 hPa | 0 mm | - | 705 W/m² | - |
| 1777610518 | 32.22° C | 69% | 1012 hPa | 0 mm | - | 690 W/m² | - |
| 1777610217 | 32.22° C | 70% | 1013 hPa | 0 mm | - | 707 W/m² | - |
| 1777609917 | 32.22° C | 70% | 1013 hPa | 0 mm | - | 665 W/m² | - |
| 1777609618 | 31.67° C | 71% | 1013 hPa | 0 mm | - | 292 W/m² | - |
| 1777609317 | 31.67° C | 72% | 1013 hPa | 0 mm | - | 225 W/m² | - |
| 1777609018 | 31.67° C | 72% | 1013 hPa | 0 mm | - | 187 W/m² | - |
| 1777608718 | 32.22° C | 71% | 1013 hPa | 0 mm | - | 208 W/m² | - |
| 1777608418 | 31.67° C | 72% | 1013 hPa | 0 mm | - | 692 W/m² | - |
| 1777608119 | 31.67° C | 72% | 1013 hPa | 0 mm | - | 712 W/m² | - |
| 1777607818 | 31.11° C | 72% | 1013 hPa | 0 mm | - | 232 W/m² | - |
| 1777607519 | 31.67° C | 72% | 1013 hPa | 0 mm | - | 187 W/m² | - |
| 1777607218 | 31.67° C | 73% | 1014 hPa | 0 mm | - | 177 W/m² | - |
| 1777606917 | 32.22° C | 71% | 1014 hPa | 0 mm | - | 207 W/m² | - |
| 1777606619 | 32.78° C | 68% | 1013 hPa | 0 mm | - | 688 W/m² | - |
* Rain latest hour (hover to see other rain measurements)
** Current wind speed in m/s (hover to see current wind gust speed)